UAL297 KMCO-KEWR

Flight info

Callsign UAL297
Flight time N/A
Altitude 35000
Route FATHE4 VIYAP Q87 ALWZZ OGRAE Q99 QUART PHLBO4
Aircraft B739/M-SDE2E3FGHIRWXY/LB1

Departure

Time 2026-05-06 23:36
Airport Orlando International Airport (KMCO)

Arrival

Time N/A
Airport Newark Liberty International Airport (KEWR)
Time Latitude Longitude Altitude Speed Heading
2026-05-06 23:19 28.43511 -81.30033 100 ft 0 kts 261°
2026-05-06 23:28 28.43512 -81.30029 100 ft 3 kts 264°
2026-05-06 23:28 28.43513 -81.30001 100 ft 4 kts 264°
2026-05-06 23:29 28.43516 -81.29971 100 ft 4 kts 262°
2026-05-06 23:29 28.43516 -81.29966 100 ft 2 kts 262°
2026-05-06 23:33 28.43517 -81.29967 100 ft 0 kts 270°
2026-05-06 23:33 28.43519 -81.29971 100 ft 1 kts 299°
2026-05-06 23:33 28.43524 -81.29972 100 ft 1 kts 341°
2026-05-06 23:33 28.43539 -81.29963 100 ft 4 kts 51°
2026-05-06 23:34 28.43532 -81.29924 100 ft 6 kts 90°
2026-05-06 23:34 28.43544 -81.29871 101 ft 0 kts 76°
2026-05-06 23:34 28.43545 -81.29866 101 ft 2 kts 76°
2026-05-06 23:34 28.43551 -81.29829 103 ft 7 kts 88°
2026-05-06 23:35 28.43548 -81.29749 102 ft 14 kts 92°
2026-05-06 23:35 28.43538 -81.29624 102 ft 15 kts 125°
2026-05-06 23:35 28.43462 -81.29590 105 ft 7 kts 173°
2026-05-06 23:35 28.43333 -81.29585 107 ft 46 kts 180°
2026-05-06 23:36 28.42780 -81.29580 102 ft 111 kts 179°
2026-05-06 23:36 28.41831 -81.29571 116 ft 157 kts 176°
2026-05-06 23:36 28.40697 -81.29594 571 ft 163 kts 179°
2026-05-06 23:36 28.39524 -81.29634 1020 ft 173 kts 179°
2026-05-06 23:37 28.38398 -81.29266 1587 ft 175 kts 141°
2026-05-06 23:37 28.37757 -81.28055 1981 ft 192 kts 102°
2026-05-06 23:37 28.37895 -81.26459 2152 ft 222 kts 68°
2026-05-06 23:37 28.38901 -81.25052 2463 ft 244 kts 34°
2026-05-06 23:38 28.40550 -81.24562 2976 ft 252 kts 357°
2026-05-06 23:38 28.42318 -81.24745 3509 ft 266 kts 352°
2026-05-06 23:38 28.44195 -81.25005 4194 ft 275 kts 351°
2026-05-06 23:38 28.57860 -81.26505 10134 ft 280 kts 356°
2026-05-06 23:39 28.74082 -81.27782 15345 ft 308 kts 354°
2026-05-06 23:39 28.92329 -81.29480 19376 ft 351 kts 352°
2026-05-06 23:39 29.12890 -81.31444 22515 ft 390 kts 349°
2026-05-06 23:39 29.35851 -81.32958 24434 ft 434 kts 353°
2026-05-06 23:40 29.60422 -81.34207 26273 ft 446 kts 350°
2026-05-06 23:40 29.85558 -81.35766 28179 ft 459 kts 351°
2026-05-06 23:40 30.11268 -81.37049 30211 ft 462 kts 349°
2026-05-06 23:40 30.36547 -81.38732 32605 ft 454 kts 349°
2026-05-06 23:41 30.61361 -81.40081 35139 ft 443 kts 351°
2026-05-06 23:41 30.84457 -81.41208 35419 ft 461 kts 350°
2026-05-06 23:41 30.93366 -81.41742 35264 ft 461 kts 349°
2026-05-06 23:41 30.96497 -81.41949 35151 ft 449 kts 349°
2026-05-06 23:42 30.99567 -81.42143 35088 ft 439 kts 350°
2026-05-06 23:42 31.11006 -81.42746 35008 ft 438 kts 352°
2026-05-06 23:42 31.35777 -81.40569 35150 ft 461 kts
2026-05-06 23:43 31.59268 -81.24798 35036 ft 495 kts 28°
2026-05-06 23:43 31.82480 -81.11796 34898 ft 450 kts 13°
2026-05-06 23:43 32.03397 -80.97909 34972 ft 470 kts 21°
2026-05-06 23:43 32.26806 -80.86926 35144 ft 450 kts 10°
2026-05-06 23:44 32.50851 -80.74632 35252 ft 491 kts 19°
2026-05-06 23:44 32.75179 -80.59794 34983 ft 487 kts 18°
2026-05-06 23:44 32.85478 -80.53776 34975 ft 484 kts 17°
2026-05-06 23:45 32.91478 -80.50385 34990 ft 472 kts 16°
2026-05-06 23:45 32.97360 -80.46968 35006 ft 470 kts 17°
2026-05-06 23:46 33.03214 -80.43498 35003 ft 470 kts 17°
2026-05-06 23:46 33.09055 -80.40009 35004 ft 470 kts 17°
2026-05-06 23:47 33.14915 -80.36505 35007 ft 472 kts 17°
2026-05-06 23:47 33.20763 -80.33005 35005 ft 474 kts 17°
2026-05-06 23:48 33.26667 -80.29467 35003 ft 476 kts 17°
2026-05-06 23:48 33.32596 -80.25909 35015 ft 478 kts 17°
2026-05-06 23:49 33.38555 -80.22330 34998 ft 480 kts 17°